{"data":{"norad_id":58243,"intl_designator":"2023-171P","name":"STARLINK-30864","alt_names":[],"object_type":"PAYLOAD","status":"ACTIVE","operator":null,"country":"US","launch_date":"2023-11-08","launch_site_code":"AFETR","launch_vehicle":null,"mission":null,"orbit_class":"UNKNOWN","rcs_meters":null,"size_class":null,"mass_kg":null,"dimensions":null,"purposes":["comms"],"wikipedia_slug":null,"has_3d_model":false,"image_url":null,"decayed_at":null,"tle_current":{"epoch":"2026-09-20T06:40:36.173280Z","epoch_age_seconds":162746,"freshness":"FRESH","line1":"1 58243U 23171P   26263.27819645  .00000394  00000+0  23830-4 0  9992","line2":"2 58243  43.0043 266.3591 0001203 265.1821  94.8893 15.27575837159399","mean_motion":15.27575837,"eccentricity":0.0001203,"inclination_deg":43.0043,"raan_deg":266.3591,"arg_perigee_deg":265.1821,"mean_anomaly_deg":94.8893,"bstar":2.383e-5,"rev_number":15939,"period_min":94.267005612501,"perigee_km":482.23615940064,"apogee_km":483.88696377455,"semimajor_km":6861.1985615876,"source":"CELESTRAK","updated_at":"2026-09-21T09:00:33.838591Z"}}}